Broken Bow, NE

7:17 PM CDT on April 25, 2018 (GMT -0500)
Broken Bow Municipal

Weather History for KBBW - August, 2014

Change the Weather History Date:

Friday, August 15, 2014

  Actual Average Record
Temperature  
Mean Temperature 75 °F 72 °F  
Max Temperature 85 °F 84 °F 108 °F (1936)
Min Temperature 64 °F 60 °F 43 °F (1985)
Degree Days  
Heating Degree Days 0 0  
Month to date heating degree days 0 0  
Since 1 June heating degree days 40 51  
Cooling Degree Days 10 8  
Month to date cooling degree days 128 127  
Year to date cooling degree days 592 601  
Since 1 June cooling degree days 514 567  
Growing Degree Days 25 (Base 50)    
Moisture  
Dew Point 67 °F    
Average Humidity 76    
Maximum Humidity 93    
Minimum Humidity 59    
Precipitation  
Precipitation 0.00 in 0.07 in 2.24 in (2017)
Sea Level Pressure  
Sea Level Pressure 29.83 in    
Wind  
Wind Speed 6 mph (ESE)    
Max Wind Speed 13 mph    
Max Gust Speed 19 mph    
Visibility 9 miles    
Events      
T = Trace of Precipitation, MM = Missing Value Source: NWS Daily Summary

Daily Weather History Graph

Daily Weather History Graph

Search for Another Location

Airport or City:

Astronomy

Aug. 15, 2014 Rise Set
Actual Time 6:47 AM CDT 8:37 PM CDT
Civil Twilight 6:17 AM CDT 9:07 PM CDT
Nautical Twilight 5:41 AM CDT 9:43 PM CDT
Astronomical Twilight 5:02 AM CDT 10:22 PM CDT
Moon 11:36 PM CDT (8/15) 12:36 PM CDT (8/15)
Length of Visible Light 14h 49m
Length of Day
13h 50m
Waning Gibbous, 69% of the Moon is Illuminated
Aug 15
Waning Gibbous
Aug 17
Last Quarter
Aug 25
New
Sep 2
First Quarter
Sep 8
Full

Hourly Weather History & Observations

Time (CDT) Temp. Heat Index Dew Point Humidity Pressure Visibility Wind Dir Wind Speed Gust Speed Precip Events Conditions
12:53 AM 73.0 °F - 64.9 °F 76% 29.84 in 10.0 mi SE 10.4 mph - N/A   Mostly Cloudy
1:53 AM 71.1 °F - 64.9 °F 81% 29.86 in 10.0 mi ENE 4.6 mph - N/A   Partly Cloudy
2:53 AM 71.1 °F - 64.9 °F 81% 29.86 in 10.0 mi SE 9.2 mph - N/A   Clear
3:53 AM 69.1 °F - 64.9 °F 87% 29.83 in 10.0 mi ESE 6.9 mph - N/A   Clear
4:53 AM 70.0 °F - 64.9 °F 84% 29.83 in 10.0 mi SSE 5.8 mph - N/A   Mostly Cloudy
5:53 AM 70.0 °F - 64.0 °F 81% 29.82 in 10.0 mi South 5.8 mph - N/A   Clear
6:53 AM 69.8 °F - 64.4 °F 83% 29.89 in 10.0 mi South 8.1 mph - N/A   Clear
7:53 AM 71.1 °F - 64.0 °F 78% 29.81 in 10.0 mi SSW 10.4 mph - N/A   Clear
8:53 AM 71.6 °F - 64.4 °F 78% 29.89 in 10.0 mi SSW 8.1 mph - N/A   Clear
9:53 AM 75.0 °F - 66.0 °F 73% 29.81 in 10.0 mi WSW 6.9 mph - N/A   Clear
10:53 AM 77.0 °F - 66.9 °F 71% 29.82 in 10.0 mi Calm Calm - N/A   Clear
11:53 AM 81.0 °F 83.8 °F 68.0 °F 65% 29.81 in 10.0 mi North 8.1 mph - N/A   Scattered Clouds
12:53 PM 79.0 °F - 69.1 °F 72% 29.82 in 10.0 mi NNE 6.9 mph - N/A   Mostly Cloudy
1:53 PM 81.0 °F 84.1 °F 69.1 °F 67% 29.82 in 10.0 mi NNE 6.9 mph - N/A   Overcast
2:53 PM 82.0 °F 85.5 °F 69.1 °F 65% 29.82 in 10.0 mi Variable 4.6 mph - N/A   Overcast
3:53 PM 84.0 °F 87.8 °F 69.1 °F 61% 29.81 in 10.0 mi East 9.2 mph - N/A   Partly Cloudy
4:53 PM 84.0 °F 87.0 °F 68.0 °F 58% 29.81 in 10.0 mi NNE 9.2 mph - N/A   Scattered Clouds
5:53 PM 84.0 °F 87.0 °F 68.0 °F 58% 29.80 in 10.0 mi Calm Calm - N/A   Partly Cloudy
6:53 PM 82.9 °F 87.0 °F 70.0 °F 65% 29.79 in 10.0 mi East 4.6 mph - N/A   Partly Cloudy
7:53 PM 80.1 °F 83.2 °F 70.0 °F 71% 29.79 in 10.0 mi ESE 6.9 mph - N/A   Clear
8:53 PM 73.9 °F - 70.0 °F 87% 29.82 in 10.0 mi ESE 5.8 mph - N/A   Mostly Cloudy
9:53 PM 71.1 °F - 68.0 °F 90% 29.84 in 8.0 mi ESE 4.6 mph - N/A   Clear
10:53 PM 68.0 °F - 66.0 °F 93% 29.84 in 6.0 mi Calm Calm - N/A   Clear
11:37 PM 66.0 °F - 64.0 °F 93% 29.91 in 2.0 mi Calm Calm - N/A   Clear
11:46 PM 66.0 °F - 64.9 °F 96% 29.91 in 5.0 mi NE 3.5 mph - N/A   Clear